DW8618 Nerja ES current weather conditions

sailwx.info

Wind from 199 at 2 knots gusting 7

Air temperature 26.1° C
Dewpoint 20.0° C

Last reported at 2016-Jul-24 09:45 UTC.
Time now 2016-Jul-24 10:41 UTC

Location: N 36°46' W 003°52'.
View on Google Maps.

See reports from other nearby stations

  
Tides and Currents Weather Stations Pressure Air Temp Water Temp Dewpoint Dewpoint Depression Visibility Wind Speed Wind Dir Waves Ship Positions
date/time (UTC)wind fromknots sea level pressurealtimeterstation pressurevisibilityair tempwater tempwave heightnotes
2016-Jul-24 09:45 199 2 gusting 7 26.1
2016-Jul-24 09:31 148 4 gusting 6 25.6
2016-Jul-24 09:15 168 2 gusting 8 26.1
2016-Jul-24 09:01 190 1 gusting 6 26.1
2016-Jul-24 08:45 189 0 gusting 4 26.1
2016-Jul-24 08:30 169 25.6
2016-Jul-24 08:16 192 25.6
2016-Jul-24 08:01 192 25.6
2016-Jul-24 07:45 190 25.6
2016-Jul-24 07:30 198 26.1
2016-Jul-24 07:15 339 25.6
2016-Jul-24 07:01 339 24.4
2016-Jul-24 06:45 338 23.9
2016-Jul-24 06:30 338 22.8
2016-Jul-24 06:15 346 22.2
2016-Jul-24 06:01 344 21.7
2016-Jul-24 05:45 342 21.7
2016-Jul-24 05:30 333 22.2
2016-Jul-24 05:16 333 22.2
2016-Jul-24 05:01 333 22.2
2016-Jul-24 04:45 333 22.2
2016-Jul-24 04:31 325 22.8
2016-Jul-24 04:15 325 22.8
2016-Jul-24 04:01 325 22.2
2016-Jul-24 03:45 324 22.8
2016-Jul-24 03:31 323 22.8
2016-Jul-24 03:15 317 23.3
2016-Jul-24 03:01 241 23.3
2016-Jul-24 02:46 241 23.3
2016-Jul-24 02:30 241 23.3
2016-Jul-24 02:15 241 23.3
2016-Jul-24 02:01 241 23.3
2016-Jul-24 01:45 241 23.9
2016-Jul-24 01:30 241 23.9
2016-Jul-24 01:16 236 23.9
2016-Jul-24 01:01 234 23.9
2016-Jul-24 00:46 217 23.9
2016-Jul-24 00:30 152 23.9
2016-Jul-24 00:15 152 23.9
2016-Jul-24 00:01 123 23.9
2016-Jul-23 23:45 129 23.9
2016-Jul-23 23:31 132 1 gusting 6 23.9
2016-Jul-23 23:15 120 2 gusting 8 23.9
2016-Jul-23 23:01 143 2 gusting 7 23.9
2016-Jul-23 22:45 156 1 gusting 6 23.9
2016-Jul-23 22:30 142 0 gusting 6 23.9
2016-Jul-23 22:15 134 1 gusting 6 24.4
2016-Jul-23 22:01 080 0 gusting 6 23.9
2016-Jul-23 21:46 090 2 gusting 9 23.9
2016-Jul-23 21:30 144 0 gusting 6 23.9
2016-Jul-23 21:15 121 1 gusting 7 23.9
2016-Jul-23 21:01 109 3 gusting 9 23.9
2016-Jul-23 20:45 111 2 gusting 10 23.9
2016-Jul-23 20:30 170 23.9
2016-Jul-23 20:15 123 3 gusting 9 23.9
2016-Jul-23 20:01 136 2 gusting 9 23.9
2016-Jul-23 19:46 159 2 gusting 7 23.9
2016-Jul-23 19:30 113 3 gusting 9 23.9
2016-Jul-23 19:15 148 2 gusting 8 24.4
2016-Jul-23 19:01 132 2 gusting 7 24.4
2016-Jul-23 18:45 140 1 gusting 7 24.4
2016-Jul-23 18:30 159 2 gusting 7 25.0
2016-Jul-23 18:16 142 3 gusting 7 25.0
2016-Jul-23 18:01 119 2 gusting 8 25.0
2016-Jul-23 17:46 139 3 gusting 8 25.0
2016-Jul-23 17:31 179 2 gusting 6 25.0
2016-Jul-23 17:15 157 4 gusting 7 25.0
2016-Jul-23 17:01 174 1 gusting 6 25.6
2016-Jul-23 16:45 171 4 gusting 6 25.6
2016-Jul-23 16:30 182 1 gusting 6 25.6
2016-Jul-23 16:15 171 0 gusting 7 25.6
2016-Jul-23 16:01 165 0 gusting 6 25.6
2016-Jul-23 15:45 155 1 gusting 9 25.6
2016-Jul-23 15:31 169 3 gusting 6 26.1
2016-Jul-23 15:15 173 1 gusting 7 25.6
2016-Jul-23 14:45 150 3 gusting 6 25.6
2016-Jul-23 14:31 178 3 gusting 9 25.6
2016-Jul-23 14:15 184 1 gusting 6 25.6
2016-Jul-23 13:45 171 2 gusting 8 25.6
2016-Jul-23 13:31 183 3 gusting 6 25.6
2016-Jul-23 13:15 163 3 gusting 8 25.6
2016-Jul-23 12:45 181 1 gusting 9 25.6
2016-Jul-23 12:31 148 2 gusting 6 25.6
2016-Jul-23 12:15 077 2 gusting 7 25.6
2016-Jul-23 11:45 101 2 gusting 6 25.6
2016-Jul-23 11:31 173 2 gusting 6 25.6
2016-Jul-23 11:15 191 4 gusting 7 25.6
2016-Jul-23 10:46 150 2 gusting 11 25.6
2016-Jul-23 10:30 134 3 gusting 7 25.6
2016-Jul-23 10:16 144 6 gusting 11 25.6
2016-Jul-23 10:01 181 2 gusting 8 25.6
2016-Jul-23 09:45 187 0 gusting 7 25.6
2016-Jul-23 09:31 141 2 gusting 7 25.6
2016-Jul-23 09:16 173 1 gusting 6 25.0
2016-Jul-23 09:01 123 0 gusting 6 25.0
2016-Jul-23 08:45 181 0 gusting 6 25.0
2016-Jul-23 08:31 196 1 gusting 6 24.4
2016-Jul-23 08:16 178 0 gusting 4 24.4
2016-Jul-23 08:01 186 2 gusting 6 25.0
2016-Jul-23 07:45 211 26.1
2016-Jul-23 07:31 338 25.6
2016-Jul-23 07:15 338 25.6
2016-Jul-23 06:45 340 23.9
2016-Jul-23 06:31 343 23.3
2016-Jul-23 06:15 346 22.8
2016-Jul-23 05:45 342 22.2
2016-Jul-23 05:31 342 22.8
2016-Jul-23 05:15 342 22.8
2016-Jul-23 04:45 342 22.2
2016-Jul-23 04:31 342 22.2
2016-Jul-23 04:15 342 22.2
2016-Jul-23 04:01 342 22.2
2016-Jul-23 03:45 325 22.8
2016-Jul-23 03:30 346 1 gusting 3 22.8
2016-Jul-23 03:15 315 23.3
2016-Jul-23 03:01 290 23.3
2016-Jul-23 02:46 292 23.3
2016-Jul-23 02:31 337 23.3
2016-Jul-23 02:15 117 23.3
2016-Jul-23 02:01 116 23.3
2016-Jul-23 01:45 116 23.3
2016-Jul-23 01:31 116 23.3
2016-Jul-23 01:15 121 23.3
2016-Jul-23 01:01 136 23.9
2016-Jul-23 00:45 134 23.9
2016-Jul-23 00:31 134 23.9
2016-Jul-23 00:15 153 24.4
2016-Jul-22 23:45 113 24.4
2016-Jul-22 23:31 171 24.4
2016-Jul-22 23:15 339 24.4
2016-Jul-22 23:01 331 24.4
2016-Jul-22 22:45 326 24.4
2016-Jul-22 22:31 186 24.4
2016-Jul-22 22:15 178 25.0
2016-Jul-22 22:01 144 3 gusting 11 25.6
2016-Jul-22 21:45 119 5 gusting 14 26.7
2016-Jul-22 21:31 120 27.2
2016-Jul-22 21:15 235 27.8
2016-Jul-22 20:46 137 26.7
2016-Jul-22 20:30 081 26.7
2016-Jul-22 20:15 131 27.2
2016-Jul-22 20:01 338 27.2
2016-Jul-22 19:45 331 27.2
2016-Jul-22 19:31 123 27.2
2016-Jul-22 19:15 132 27.2
2016-Jul-22 19:01 156 27.8
2016-Jul-22 18:45 193 28.3
2016-Jul-22 18:30 163 30.0
2016-Jul-22 18:15 090 28.9
2016-Jul-22 18:01 296 28.3
2016-Jul-22 17:45 185 5 gusting 8 30.6
2016-Jul-22 17:30 298 0 gusting 4 32.8
2016-Jul-22 17:15 317 32.2
2016-Jul-22 17:01 286 5 gusting 13 32.2
2016-Jul-22 16:45 329 4 gusting 13 32.2
2016-Jul-22 16:30 295 3 gusting 13 32.2
2016-Jul-22 16:15 315 1 gusting 14 32.8
2016-Jul-22 16:01 294 4 gusting 13 32.2
2016-Jul-22 15:45 261 6 gusting 13 32.2
2016-Jul-22 15:31 253 31.7
2016-Jul-22 15:15 250 0 gusting 7 30.0
2016-Jul-22 15:01 207 4 gusting 11 30.6
2016-Jul-22 14:45 188 2 gusting 7 32.2
2016-Jul-22 14:31 267 2 gusting 8 32.8
2016-Jul-22 14:15 252 3 gusting 13 32.2
2016-Jul-22 14:01 255 3 gusting 12 32.8
2016-Jul-22 13:45 261 3 gusting 13 32.2
2016-Jul-22 13:31 242 5 gusting 12 32.2
2016-Jul-22 13:16 255 5 gusting 13 32.8
2016-Jul-22 13:01 254 3 gusting 9 32.2
2016-Jul-22 12:45 198 4 gusting 14 32.2
2016-Jul-22 12:30 256 5 gusting 14 31.7
2016-Jul-22 12:15 206 3 gusting 11 32.2
2016-Jul-22 12:01 207 5 gusting 9 31.7
2016-Jul-22 11:45 236 4 gusting 8 31.1
2016-Jul-22 11:30 250 4 gusting 13 31.7
2016-Jul-22 11:16 234 5 gusting 8 32.2
2016-Jul-22 11:01 213 4 gusting 6 31.7
2016-Jul-22 10:45 194 4 gusting 6 29.4
2016-Jul-22 10:30 193 1 gusting 6 28.9
2016-Jul-22 10:16 217 1 gusting 6 28.3